This is the latest recevied weather packets stored in our database for station/object NY5V. If no packets are shown the sender has not sent any weather packets the latest 10 day(s).
| Time | Temp. | Humidity | Pressure | Rain* | Wind** | Luminosity | Snow |
|---|---|---|---|---|---|---|---|
| 1777786162 | 13.33° C | 83% | 1020.6 hPa | 0 mm | - | 0 W/m² | - |
| 1777785561 | 13.33° C | 81% | 1020.5 hPa | 0 mm | - | 0 W/m² | - |
| 1777784960 | 13.33° C | 81% | 1020.4 hPa | 0 mm | - | 0 W/m² | - |
| 1777784360 | 13.33° C | 83% | 1020.4 hPa | 0 mm | - | 0 W/m² | - |
| 1777783759 | 13.33° C | 83% | 1020.5 hPa | 0 mm | - | 0 W/m² | - |
| 1777783160 | 13.33° C | 83% | 1020.4 hPa | 0 mm | - | 0 W/m² | - |
| 1777782558 | 13.33° C | 83% | 1020.5 hPa | 0 mm | - | 0 W/m² | - |
| 1777781957 | 13.33° C | 82% | 1020.6 hPa | 0 mm | - | 0 W/m² | - |
| 1777781357 | 13.89° C | 83% | 1020.7 hPa | 0 mm | - | 0 W/m² | - |
| 1777780752 | 13.89° C | 81% | 1020.6 hPa | 0 mm | - | 0 W/m² | - |
| 1777780151 | 13.89° C | 80% | 1020.4 hPa | 0 mm | - | 0 W/m² | - |
| 1777779546 | 14.44° C | 80% | 1020.3 hPa | 0 mm | - | 0 W/m² | - |
| 1777778941 | 14.44° C | 79% | 1020.5 hPa | 0 mm | - | 0 W/m² | - |
| 1777778337 | 14.44° C | 79% | 1020.4 hPa | 0 mm | - | 0 W/m² | - |
| 1777777736 | 14.44° C | 79% | 1020.3 hPa | 0 mm | - | 0 W/m² | - |
| 1777777135 | 15° C | 77% | 1020.1 hPa | 0 mm | - | 0 W/m² | - |
| 1777776536 | 15° C | 75% | 1020.1 hPa | 0 mm | - | 0 W/m² | - |
| 1777775935 | 15.56° C | 74% | 1020 hPa | 0 mm | - | 0 W/m² | - |
| 1777775335 | 15.56° C | 73% | 1019.7 hPa | 0 mm | - | 0 W/m² | - |
| 1777774732 | 15.56° C | 74% | 1020 hPa | 0 mm | - | 0 W/m² | - |
| 1777774131 | 16.11° C | 73% | 1019.7 hPa | 0 mm | - | 0 W/m² | - |
| 1777773531 | 16.11° C | 73% | 1019.7 hPa | 0 mm | - | 0 W/m² | - |
| 1777772930 | 16.67° C | 70% | 1019.6 hPa | 0 mm | - | 0 W/m² | - |
| 1777772325 | 17.22° C | 71% | 1019.5 hPa | 0 mm | - | 0 W/m² | - |
| 1777771725 | 17.78° C | 67% | 1019.3 hPa | 0 mm | - | 0 W/m² | - |
* Rain latest hour (hover to see other rain measurements)
** Current wind speed in m/s (hover to see current wind gust speed)